Tracking 30918 objects as of 2-Jul-2025
HD Live streaming from Space Station
objects crossing your sky now

SCOUT G-1 R/B

Track SCOUT G-1 R/B now!
10-day predictions


NORAD ID: 19072
Int'l Code: 1988-033C
Perigee: 1,022.6 km
Apogee: 1,304.6 km
Inclination: 90.3 °
Period: 108.5 minutes
Semi major axis: 7534 km
RCS: 0.767 m2 (medium)
Launch date: April 26, 1988
Source: United States (US)
Launch site: AIR FORCE WESTERN TEST RANGE (AFWTR)

Note: This is a ROCKET BODY
Your satellite tracking list
Your tracking list is empty




NASA's NSSDC Master Catalog

Two Line Element Set (TLE):
1 19072U 88033C   25182.52381709  .00000059  00000-0  10670-3 0  9995
2 19072  90.3159  11.0576 0187129 292.3821 120.8407 13.27438197800435
Source of the keplerian elements: AFSPC